SWA2160 KISP-KBWI

Flight info

Callsign SWA2160
Flight time 0h 57m
Altitude 38000
Route BEADS EMJAY Q167 ZIZZI KNUKK ATR LAFLN MIIDY3
Aircraft B38M/M-SDE1FGHILORVWXY/HB1

Departure

Time 2026-04-25 17:53
Airport Long Island MacArthur Airport (KISP)

Arrival

Time 2026-04-25 18:51
Airport Baltimore/Washington International Thurgood Marshall Airport (KBWI)
Time Latitude Longitude Altitude Speed Heading
2026-04-25 17:17 40.79056 -73.09921 95 ft 0 kts 178°
2026-04-25 17:34 40.79062 -73.09922 94 ft 2 kts 176°
2026-04-25 17:35 40.79079 -73.09925 93 ft 2 kts 167°
2026-04-25 17:35 40.79094 -73.09932 94 ft 2 kts 149°
2026-04-25 17:35 40.79106 -73.09945 93 ft 2 kts 122°
2026-04-25 17:35 40.79112 -73.09965 93 ft 2 kts 97°
2026-04-25 17:36 40.79113 -73.09981 94 ft 1 kts 90°
2026-04-25 17:36 40.79113 -73.09983 94 ft 0 kts 90°
2026-04-25 17:41 40.79113 -73.09967 96 ft 8 kts 90°
2026-04-25 17:41 40.79112 -73.09869 95 ft 9 kts 90°
2026-04-25 17:42 40.79112 -73.09808 95 ft 10 kts 90°
2026-04-25 17:42 40.79113 -73.09736 95 ft 6 kts 88°
2026-04-25 17:42 40.79114 -73.09642 92 ft 12 kts 90°
2026-04-25 17:42 40.79128 -73.09569 93 ft 3 kts 48°
2026-04-25 17:43 40.79147 -73.09555 94 ft 4 kts 16°
2026-04-25 17:43 40.79176 -73.09562 94 ft 9 kts 337°
2026-04-25 17:43 40.79201 -73.09587 94 ft 0 kts 317°
2026-04-25 17:43 40.79240 -73.09641 93 ft 19 kts 313°
2026-04-25 17:44 40.79348 -73.09785 93 ft 20 kts 314°
2026-04-25 17:44 40.79425 -73.09888 95 ft 12 kts 315°
2026-04-25 17:44 40.79460 -73.09932 94 ft 8 kts 315°
2026-04-25 17:44 40.79527 -73.10020 97 ft 12 kts 315°
2026-04-25 17:45 40.79551 -73.10065 96 ft 1 kts 278°
2026-04-25 17:45 40.79545 -73.10082 98 ft 7 kts 236°
2026-04-25 17:45 40.79473 -73.10095 99 ft 13 kts 180°
2026-04-25 17:45 40.79378 -73.10095 98 ft 11 kts 180°
2026-04-25 17:46 40.79333 -73.10095 97 ft 9 kts 180°
2026-04-25 17:46 40.79281 -73.10095 96 ft 7 kts 180°
2026-04-25 17:46 40.79230 -73.10095 97 ft 8 kts 179°
2026-04-25 17:46 40.79167 -73.10095 96 ft 11 kts 183°
2026-04-25 17:47 40.79125 -73.10124 96 ft 3 kts 230°
2026-04-25 17:47 40.79112 -73.10158 97 ft 7 kts 254°
2026-04-25 17:47 40.79111 -73.10229 99 ft 11 kts 270°
2026-04-25 17:47 40.79112 -73.10361 101 ft 14 kts 271°
2026-04-25 17:48 40.79111 -73.10547 102 ft 6 kts 270°
2026-04-25 17:48 40.79111 -73.10573 102 ft 0 kts 269°
2026-04-25 17:48 40.79111 -73.10620 103 ft 11 kts 270°
2026-04-25 17:49 40.79103 -73.10699 103 ft 6 kts 255°
2026-04-25 17:49 40.79069 -73.10771 104 ft 11 kts 225°
2026-04-25 17:49 40.79029 -73.10825 104 ft 5 kts 225°
2026-04-25 17:49 40.79009 -73.10850 104 ft 12 kts 224°
2026-04-25 17:50 40.78925 -73.10961 104 ft 15 kts 225°
2026-04-25 17:50 40.78868 -73.11036 107 ft 9 kts 224°
2026-04-25 17:50 40.78832 -73.11085 107 ft 7 kts 229°
2026-04-25 17:50 40.78818 -73.11121 108 ft 3 kts 259°
2026-04-25 17:51 40.78822 -73.11162 109 ft 7 kts 291°
2026-04-25 17:51 40.78861 -73.11195 109 ft 9 kts 335°
2026-04-25 17:51 40.78910 -73.11187 107 ft 5 kts 32°
2026-04-25 17:51 40.78924 -73.11171 108 ft 1 kts 42°
2026-04-25 17:52 40.78927 -73.11167 108 ft 7 kts 44°
2026-04-25 17:52 40.79241 -73.10751 103 ft 90 kts 45°
2026-04-25 17:52 40.79818 -73.09987 142 ft 130 kts 46°
2026-04-25 17:53 40.80471 -73.09180 322 ft 140 kts 44°
2026-04-25 17:53 40.81209 -73.08296 468 ft 153 kts 44°
2026-04-25 17:53 40.82080 -73.07255 598 ft 168 kts 45°
2026-04-25 17:53 40.82882 -73.06227 1320 ft 170 kts 53°
2026-04-25 17:54 40.83711 -73.05065 1843 ft 178 kts 51°
2026-04-25 17:54 40.84589 -73.03840 2369 ft 189 kts 51°
2026-04-25 17:54 40.85531 -73.02523 2830 ft 204 kts 51°
2026-04-25 17:54 40.86532 -73.01117 3285 ft 221 kts 50°
2026-04-25 17:55 40.87631 -72.99570 3759 ft 239 kts 50°
2026-04-25 17:55 40.88811 -72.97911 4296 ft 254 kts 49°
2026-04-25 17:55 40.90020 -72.96212 4979 ft 263 kts 47°
2026-04-25 17:55 40.91276 -72.94457 5686 ft 270 kts 45°
2026-04-25 17:56 40.92582 -72.92644 6459 ft 275 kts 44°
2026-04-25 17:56 40.93917 -72.90804 7184 ft 279 kts 44°
2026-04-25 17:56 40.95280 -72.88939 7906 ft 283 kts 43°
2026-04-25 17:56 40.96660 -72.87057 8629 ft 287 kts 45°
2026-04-25 17:57 40.97592 -72.84708 9351 ft 298 kts 78°
2026-04-25 17:57 40.97437 -72.81964 10068 ft 306 kts 111°
2026-04-25 17:57 40.96215 -72.79646 10570 ft 314 kts 143°
2026-04-25 17:57 40.94971 -72.78632 10832 ft 320 kts 158°
2026-04-25 17:58 40.92145 -72.77047 11292 ft 341 kts 159°
2026-04-25 17:58 40.89983 -72.75611 11810 ft 353 kts 153°
2026-04-25 17:58 40.87939 -72.73711 12425 ft 363 kts 141°
2026-04-25 17:58 40.86163 -72.71336 13059 ft 370 kts 134°
2026-04-25 17:59 40.84451 -72.68742 13726 ft 375 kts 134°
2026-04-25 17:59 40.82664 -72.66219 14337 ft 379 kts 139°
2026-04-25 17:59 40.80763 -72.63841 14927 ft 382 kts 141°
2026-04-25 17:59 40.78808 -72.61383 15510 ft 387 kts 139°
2026-04-25 18:00 40.76827 -72.59024 16047 ft 387 kts 152°
2026-04-25 18:00 40.74350 -72.57794 16596 ft 378 kts 179°
2026-04-25 18:00 40.71810 -72.58057 17163 ft 366 kts 201°
2026-04-25 18:00 40.69412 -72.59183 17723 ft 365 kts 211°
2026-04-25 18:01 40.67214 -72.60843 18273 ft 362 kts 220°
2026-04-25 18:01 40.65310 -72.63011 18775 ft 361 kts 229°
2026-04-25 18:01 40.63575 -72.65377 19239 ft 365 kts 230°
2026-04-25 18:01 40.61735 -72.67725 19710 ft 371 kts 226°
2026-04-25 18:02 40.59733 -72.69898 20187 ft 377 kts 224°
2026-04-25 18:02 40.57682 -72.72063 20668 ft 379 kts 225°
2026-04-25 18:02 40.55679 -72.74343 21154 ft 381 kts 227°
2026-04-25 18:02 40.53680 -72.76679 21619 ft 385 kts 227°
2026-04-25 18:03 40.51634 -72.78983 22101 ft 389 kts 226°
2026-04-25 18:03 40.49545 -72.81289 22574 ft 392 kts 226°
2026-04-25 18:03 40.47454 -72.83630 23012 ft 395 kts 227°
2026-04-25 18:03 40.46622 -72.84573 23201 ft 396 kts 227°
2026-04-25 18:04 40.44527 -72.86950 23672 ft 400 kts 227°
2026-04-25 18:04 40.42405 -72.89325 24059 ft 403 kts 227°
2026-04-25 18:04 40.40251 -72.91721 24440 ft 405 kts 227°
2026-04-25 18:04 40.38104 -72.94126 24829 ft 408 kts 227°
2026-04-25 18:05 40.35938 -72.96558 25216 ft 410 kts 227°
2026-04-25 18:05 40.33783 -72.98968 25613 ft 412 kts 226°
2026-04-25 18:05 40.31564 -73.01438 26012 ft 413 kts 226°
2026-04-25 18:05 40.29373 -73.03882 26376 ft 415 kts 226°
2026-04-25 18:06 40.27176 -73.06334 26778 ft 417 kts 226°
2026-04-25 18:06 40.24954 -73.08810 27160 ft 419 kts 226°
2026-04-25 18:06 40.22728 -73.11284 27531 ft 420 kts 226°
2026-04-25 18:06 40.20530 -73.13726 27914 ft 422 kts 226°
2026-04-25 18:07 40.18272 -73.16236 28275 ft 424 kts 226°
2026-04-25 18:07 40.16030 -73.18724 28638 ft 425 kts 226°
2026-04-25 18:07 40.13757 -73.21242 29010 ft 427 kts 226°
2026-04-25 18:07 40.11498 -73.23745 29338 ft 429 kts 226°
2026-04-25 18:08 40.09216 -73.26271 29685 ft 431 kts 226°
2026-04-25 18:08 40.06923 -73.28823 30024 ft 432 kts 227°
2026-04-25 18:08 40.04678 -73.31359 30327 ft 434 kts 226°
2026-04-25 18:08 40.02358 -73.33976 30593 ft 436 kts 226°
2026-04-25 18:09 40.00080 -73.36517 30861 ft 438 kts 226°
2026-04-25 18:09 39.97752 -73.39107 31132 ft 440 kts 226°
2026-04-25 18:09 39.95431 -73.41704 31394 ft 441 kts 226°
2026-04-25 18:10 39.90736 -73.46949 31883 ft 446 kts 226°
2026-04-25 18:10 39.88370 -73.49579 32120 ft 448 kts 226°
2026-04-25 18:10 39.86004 -73.52213 32427 ft 448 kts 227°
2026-04-25 18:10 39.83629 -73.54855 32799 ft 447 kts 227°
2026-04-25 18:11 39.81288 -73.57462 33128 ft 447 kts 227°
2026-04-25 18:11 39.78934 -73.60088 33482 ft 446 kts 227°
2026-04-25 18:11 39.76560 -73.62729 33822 ft 446 kts 227°
2026-04-25 18:11 39.74216 -73.65330 34127 ft 445 kts 227°
2026-04-25 18:12 39.71850 -73.67956 34418 ft 445 kts 227°
2026-04-25 18:12 39.69504 -73.70559 34703 ft 444 kts 227°
2026-04-25 18:12 39.67147 -73.73171 34987 ft 444 kts 227°
2026-04-25 18:12 39.64793 -73.75775 35261 ft 444 kts 227°
2026-04-25 18:13 39.62474 -73.78340 35534 ft 444 kts 227°
2026-04-25 18:13 39.60126 -73.80935 35805 ft 443 kts 227°
2026-04-25 18:13 39.57779 -73.83525 36062 ft 443 kts 227°
2026-04-25 18:14 39.53055 -73.88732 36522 ft 444 kts 227°
2026-04-25 18:14 39.50723 -73.91300 36755 ft 445 kts 227°
2026-04-25 18:14 39.48333 -73.93928 36968 ft 445 kts 227°
2026-04-25 18:14 39.45997 -73.96494 37181 ft 446 kts 227°
2026-04-25 18:15 39.43636 -73.99087 37393 ft 446 kts 227°
2026-04-25 18:15 39.41263 -74.01689 37597 ft 447 kts 227°
2026-04-25 18:15 39.38890 -74.04289 37793 ft 447 kts 227°
2026-04-25 18:15 39.36505 -74.06894 37950 ft 448 kts 227°
2026-04-25 18:16 39.34114 -74.09505 38068 ft 447 kts 227°
2026-04-25 18:16 39.31756 -74.12073 38054 ft 438 kts 227°
2026-04-25 18:17 39.24837 -74.19625 38051 ft 436 kts 227°
2026-04-25 18:17 39.20201 -74.24652 38039 ft 436 kts 227°
2026-04-25 18:18 39.15586 -74.29666 38042 ft 432 kts 227°
2026-04-25 18:18 39.13313 -74.32122 37711 ft 427 kts 227°
2026-04-25 18:18 39.11037 -74.34587 37196 ft 426 kts 227°
2026-04-25 18:18 39.08776 -74.37039 36681 ft 424 kts 227°
2026-04-25 18:19 39.06520 -74.39477 36168 ft 422 kts 226°
2026-04-25 18:19 39.04274 -74.41899 35667 ft 421 kts 226°
2026-04-25 18:19 39.02022 -74.44329 35141 ft 420 kts 226°
2026-04-25 18:19 38.99794 -74.46733 34607 ft 419 kts 226°
2026-04-25 18:20 38.97596 -74.49159 34035 ft 415 kts 232°
2026-04-25 18:20 38.95798 -74.51983 33467 ft 407 kts 240°
2026-04-25 18:20 38.94306 -74.55050 32932 ft 402 kts 246°
2026-04-25 18:20 38.93146 -74.58330 32385 ft 403 kts 253°
2026-04-25 18:21 38.92329 -74.61768 31816 ft 405 kts 258°
2026-04-25 18:21 38.91673 -74.65293 31243 ft 406 kts 258°
2026-04-25 18:21 38.90981 -74.68848 30654 ft 409 kts 257°
2026-04-25 18:21 38.90272 -74.72374 30063 ft 407 kts 257°
2026-04-25 18:22 38.89587 -74.75853 29450 ft 404 kts 258°
2026-04-25 18:22 38.89360 -74.77030 29256 ft 403 kts 258°
2026-04-25 18:22 38.88291 -74.82801 28302 ft 396 kts 258°
2026-04-25 18:22 38.87650 -74.86219 27749 ft 393 kts 258°
2026-04-25 18:23 38.86998 -74.89617 27123 ft 391 kts 258°
2026-04-25 18:23 38.86351 -74.93011 26512 ft 390 kts 258°
2026-04-25 18:23 38.85715 -74.96382 25965 ft 388 kts 258°
2026-04-25 18:23 38.85077 -74.99745 25410 ft 386 kts 258°
2026-04-25 18:24 38.84442 -75.03069 24848 ft 384 kts 257°
2026-04-25 18:24 38.83805 -75.06399 24294 ft 382 kts 257°
2026-04-25 18:24 38.83184 -75.09652 23762 ft 380 kts 257°
2026-04-25 18:24 38.82544 -75.12997 23175 ft 378 kts 257°
2026-04-25 18:25 38.81928 -75.16200 22642 ft 374 kts 257°
2026-04-25 18:25 38.81308 -75.19427 22112 ft 370 kts 257°
2026-04-25 18:25 38.80882 -75.22668 21591 ft 366 kts 265°
2026-04-25 18:25 38.80701 -75.25900 21065 ft 363 kts 266°
2026-04-25 18:26 38.80498 -75.29086 20569 ft 360 kts 265°
2026-04-25 18:26 38.80288 -75.32287 20053 ft 358 kts 265°
2026-04-25 18:26 38.80091 -75.35463 19541 ft 356 kts 266°
2026-04-25 18:26 38.79901 -75.38610 19044 ft 354 kts 266°
2026-04-25 18:27 38.79701 -75.41778 18546 ft 353 kts 266°
2026-04-25 18:27 38.79518 -75.44644 18042 ft 352 kts 265°
2026-04-25 18:27 38.79320 -75.47766 17548 ft 349 kts 265°
2026-04-25 18:27 38.79125 -75.50851 17063 ft 346 kts 265°
2026-04-25 18:28 38.78932 -75.53873 16570 ft 343 kts 265°
2026-04-25 18:28 38.78737 -75.56911 16099 ft 340 kts 265°
2026-04-25 18:28 38.78543 -75.59921 15623 ft 338 kts 265°
2026-04-25 18:29 38.78157 -75.65896 14672 ft 333 kts 265°
2026-04-25 18:29 38.77964 -75.68860 14196 ft 331 kts 265°
2026-04-25 18:30 38.77394 -75.77545 12800 ft 323 kts 265°
2026-04-25 18:30 38.77206 -75.80407 12343 ft 320 kts 265°
2026-04-25 18:30 38.77018 -75.83234 11904 ft 317 kts 264°
2026-04-25 18:30 38.76832 -75.86026 11470 ft 314 kts 264°
2026-04-25 18:31 38.76648 -75.88781 11275 ft 304 kts 264°
2026-04-25 18:31 38.76471 -75.91432 11147 ft 290 kts 264°
2026-04-25 18:31 38.76301 -75.93950 11033 ft 283 kts 264°
2026-04-25 18:31 38.76132 -75.96452 10974 ft 278 kts 264°
2026-04-25 18:32 38.75967 -75.98886 10916 ft 270 kts 264°
2026-04-25 18:32 38.75803 -76.01281 10917 ft 273 kts 264°
2026-04-25 18:32 38.75638 -76.03698 10868 ft 273 kts 264°
2026-04-25 18:32 38.75711 -76.06130 10603 ft 274 kts 280°
2026-04-25 18:33 38.76364 -76.08429 10320 ft 276 kts 296°
2026-04-25 18:33 38.77390 -76.10509 10043 ft 275 kts 299°
2026-04-25 18:33 38.78422 -76.12564 9750 ft 273 kts 298°
2026-04-25 18:33 38.79440 -76.14611 9464 ft 271 kts 298°
2026-04-25 18:34 38.80114 -76.15967 9267 ft 269 kts 298°
2026-04-25 18:34 38.81119 -76.17987 9000 ft 267 kts 298°
2026-04-25 18:34 38.82111 -76.19980 8729 ft 265 kts 298°
2026-04-25 18:34 38.83098 -76.21962 8458 ft 263 kts 298°
2026-04-25 18:35 38.84079 -76.23938 8189 ft 261 kts 298°
2026-04-25 18:35 38.85044 -76.25880 7936 ft 260 kts 299°
2026-04-25 18:35 38.86010 -76.27827 7672 ft 260 kts 299°
2026-04-25 18:35 38.86954 -76.29805 7409 ft 258 kts 291°
2026-04-25 18:36 38.87595 -76.31941 7153 ft 257 kts 288°
2026-04-25 18:36 38.88225 -76.34096 6900 ft 257 kts 288°
2026-04-25 18:36 38.88859 -76.36238 6630 ft 257 kts 288°
2026-04-25 18:36 38.89495 -76.38394 6363 ft 255 kts 288°
2026-04-25 18:37 38.90119 -76.40523 6091 ft 255 kts 288°
2026-04-25 18:37 38.90737 -76.42632 5834 ft 257 kts 287°
2026-04-25 18:37 38.91372 -76.44796 5582 ft 259 kts 287°
2026-04-25 18:37 38.92013 -76.46986 5322 ft 262 kts 286°
2026-04-25 18:38 38.92662 -76.49200 5053 ft 264 kts 287°
2026-04-25 18:38 38.93505 -76.51282 5005 ft 263 kts 297°
2026-04-25 18:38 38.94399 -76.53289 5009 ft 262 kts 295°
2026-04-25 18:38 38.95293 -76.55342 5009 ft 263 kts 295°
2026-04-25 18:39 38.96192 -76.57386 5004 ft 259 kts 295°
2026-04-25 18:39 38.97067 -76.59354 5001 ft 252 kts 296°
2026-04-25 18:39 38.97946 -76.61327 4983 ft 253 kts 295°
2026-04-25 18:39 38.98825 -76.63281 4822 ft 253 kts 296°
2026-04-25 18:40 38.99701 -76.65229 4648 ft 249 kts 296°
2026-04-25 18:40 39.00545 -76.67117 4463 ft 243 kts 296°
2026-04-25 18:40 39.01374 -76.68971 4345 ft 230 kts 296°
2026-04-25 18:40 39.02182 -76.70785 4230 ft 237 kts 296°
2026-04-25 18:41 39.02978 -76.72569 4074 ft 237 kts 296°
2026-04-25 18:41 39.03798 -76.74395 4053 ft 237 kts 296°
2026-04-25 18:41 39.04631 -76.76233 4068 ft 236 kts 296°
2026-04-25 18:41 39.05454 -76.78050 4076 ft 234 kts 296°
2026-04-25 18:42 39.06276 -76.79872 4081 ft 234 kts 296°
2026-04-25 18:42 39.06817 -76.81072 4094 ft 233 kts 296°
2026-04-25 18:42 39.07758 -76.83572 4107 ft 229 kts 284°
2026-04-25 18:42 39.08262 -76.85519 4116 ft 229 kts 284°
2026-04-25 18:43 39.08776 -76.87438 4119 ft 227 kts 284°
2026-04-25 18:43 39.09286 -76.89336 4098 ft 228 kts 285°
2026-04-25 18:43 39.09795 -76.91242 4114 ft 226 kts 285°
2026-04-25 18:43 39.10462 -76.93086 4117 ft 228 kts 300°
2026-04-25 18:44 39.11125 -76.94929 4119 ft 225 kts 291°
2026-04-25 18:44 39.12240 -76.96393 4128 ft 237 kts 329°
2026-04-25 18:44 39.13731 -76.97248 4132 ft 224 kts 333°
2026-04-25 18:44 39.15002 -76.98107 4084 ft 195 kts 323°
2026-04-25 18:45 39.16247 -76.98673 4035 ft 193 kts 357°
2026-04-25 18:45 39.17537 -76.98354 4014 ft 190 kts 28°
2026-04-25 18:45 39.18539 -76.97256 3989 ft 185 kts 57°
2026-04-25 18:45 39.18998 -76.95747 3747 ft 175 kts 98°
2026-04-25 18:46 39.18854 -76.94202 3587 ft 180 kts 99°
2026-04-25 18:46 39.18807 -76.92640 3375 ft 172 kts 99°
2026-04-25 18:46 39.18742 -76.91163 3174 ft 152 kts 100°
2026-04-25 18:46 39.18665 -76.89799 3021 ft 156 kts 100°
2026-04-25 18:47 39.18590 -76.88478 2856 ft 149 kts 99°
2026-04-25 18:47 39.18513 -76.87161 2707 ft 145 kts 98°
2026-04-25 18:47 39.18439 -76.85883 2546 ft 141 kts 97°
2026-04-25 18:47 39.18366 -76.84636 2391 ft 137 kts 96°
2026-04-25 18:48 39.18295 -76.83402 2065 ft 135 kts 96°
2026-04-25 18:48 39.18224 -76.82182 1897 ft 135 kts 95°
2026-04-25 18:48 39.18154 -76.80972 1778 ft 139 kts 95°
2026-04-25 18:48 39.18083 -76.79749 1679 ft 137 kts 93°
2026-04-25 18:49 39.18015 -76.78561 1547 ft 136 kts 92°
2026-04-25 18:49 39.17946 -76.77346 1486 ft 132 kts 92°
2026-04-25 18:49 39.17878 -76.76131 1310 ft 136 kts 94°
2026-04-25 18:49 39.17807 -76.74905 1102 ft 131 kts 94°
2026-04-25 18:50 39.17748 -76.73713 900 ft 142 kts 93°
2026-04-25 18:50 39.17672 -76.72471 704 ft 137 kts 93°
2026-04-25 18:50 39.17601 -76.71230 522 ft 137 kts 92°
2026-04-25 18:50 39.17521 -76.70057 371 ft 130 kts 94°
2026-04-25 18:51 39.17462 -76.68895 202 ft 127 kts 92°
2026-04-25 18:51 39.17429 -76.68188 158 ft 107 kts 94°
2026-04-25 18:51 39.17377 -76.67307 162 ft 47 kts 94°
2026-04-25 18:51 39.17360 -76.66968 163 ft 30 kts 94°
2026-04-25 18:52 39.17350 -76.66774 160 ft 17 kts 94°
2026-04-25 18:52 39.17354 -76.66642 157 ft 11 kts 69°
2026-04-25 18:52 39.17392 -76.66598 157 ft 4 kts 15°
2026-04-25 18:52 39.17404 -76.66593 157 ft 3 kts 15°
2026-04-25 18:53 39.17432 -76.66607 158 ft 0 kts 318°
2026-04-25 18:54 39.17437 -76.66616 158 ft 5 kts 305°
2026-04-25 18:54 39.17454 -76.66679 160 ft 7 kts 279°
2026-04-25 18:55 39.17457 -76.66722 160 ft 2 kts 275°
2026-04-25 18:55 39.17459 -76.66753 160 ft 8 kts 274°
2026-04-25 18:55 39.17471 -76.66809 160 ft 4 kts 303°
2026-04-25 18:55 39.17495 -76.66830 160 ft 3 kts 342°
2026-04-25 18:56 39.17524 -76.66818 160 ft 7 kts 30°
2026-04-25 18:56 39.17576 -76.66778 159 ft 11 kts 17°
2026-04-25 18:56 39.17645 -76.66778 159 ft 8 kts 354°
2026-04-25 18:56 39.17683 -76.66769 159 ft 4 kts 24°
2026-04-25 18:57 39.17698 -76.66751 159 ft 2 kts 48°
2026-04-25 18:57 39.17709 -76.66735 159 ft 3 kts 51°
2026-04-25 18:57 39.17709 -76.66734 159 ft 0 kts 51°